Location: Ailly
(50.0793°N, 1.9944°E)
Time: 16:01:19
(UTC+00:00)

Gbstr 26 Del rocket - Pass Details

Date: 15 January 2026
Orbit: 490 x 1217 km, 51.8° (Epoch: 10 February)

Event Time Altitude Azimuth Distance (km) Brightness Sun altitude
Rises 06:49:28 0° 249° (WSW) 4,025 6.8 -8.7°
Reaches altitude 10° 06:52:24 10° 249° (WSW) 2,995 6.1 -8.3°
Maximum altitude 06:59:41 87° 162° (SSE) 1,001 4.1 -7.2°
Drops below altitude 10° 07:05:43 10° 74° (ENE) 2,508 7.0 -6.3°
Sets 07:07:59 0° 74° (ENE) 3,337 7.6 -6.0°
